Weather History for Weatherford, OK

Change the Weather History Date:

Thursday, January 3, 2013

  Actual Average (KJWG) Record (KJWG)
Temperature  
Mean Temperature 32 °F -  
Max Temperature 41 °F 44 °F 77 °F (2006)
Min Temperature 24 °F 24 °F 4 °F (1959)
Degree Days  
Heating Degree Days 32    
Moisture  
Dew Point 25 °F    
Average Humidity 78    
Maximum Humidity 93    
Minimum Humidity 53    
Precipitation  
Precipitation 0.00 in - - ()
Sea Level Pressure  
Sea Level Pressure 30.41 in    
Wind  
Wind Speed 5 mph (NW)    
Max Wind Speed 12 mph    
Max Gust Speed -    
Visibility 10 miles    
Events      
Averages and records for this station are not official NWS values.
T = Trace of Precipitation, MM = Missing Value Source: NWS Daily Summary

Daily Weather History Graph

Daily Weather History Graph

Search for Another Location

Airport:

Trip Planner

Search our weather history database for the weather conditions in past years. The results will help you decide how hot, cold, wet, or windy it might be!

Date:

Astronomy

Jan. 03, 2013 Rise Set
Actual Time 7:44 AM CST 5:34 PM CST
Civil Twilight 7:16 AM CST 6:02 PM CST
Nautical Twilight 6:44 AM CST 6:34 PM CST
Astronomical Twilight 6:13 AM CST 7:05 PM CST
Moon 11:56 PM CST (1/3) 11:10 AM CST (1/3)
Length of Visible Light 10h 46m
Length of Day
9h 50m
Waning Gibbous, 65% of the Moon is Illuminated
Jan 3
Waning Gibbous
Jan 4
Last Quarter
Jan 11
New
Jan 18
First Quarter
Jan 26
Full

Hourly Weather History & Observations

Time (CST) Temp. Windchill Dew Point Humidity Pressure Visibility Wind Dir Wind Speed Gust Speed Precip Events Conditions
12:15 AM 30.2 °F 26.7 °F 26.6 °F 86% 30.33 in 10.0 mi NW 3.5 mph - N/A   Clear
12:35 AM 28.4 °F 23.3 °F 26.6 °F 93% 30.33 in 10.0 mi West 4.6 mph - N/A   Clear
1:15 AM 28.4 °F 21.2 °F 26.6 °F 93% 30.33 in 10.0 mi West 6.9 mph - N/A   Clear
1:35 AM 28.4 °F 22.2 °F 26.6 °F 93% 30.33 in 10.0 mi West 5.8 mph - N/A   Clear
1:55 AM 28.4 °F 22.2 °F 26.6 °F 93% 30.33 in 10.0 mi West 5.8 mph - N/A   Clear
2:15 AM 28.4 °F 22.2 °F 26.6 °F 93% 30.33 in 10.0 mi WNW 5.8 mph - N/A   Clear
2:35 AM 30.2 °F 22.6 °F 28.4 °F 93% 30.33 in 10.0 mi NW 8.1 mph - N/A   Clear
2:55 AM 30.2 °F 25.4 °F 26.6 °F 86% 30.34 in 10.0 mi WNW 4.6 mph - N/A   Clear
3:15 AM 28.4 °F 24.6 °F 26.6 °F 93% 30.36 in 10.0 mi NW 3.5 mph - N/A   Clear
3:35 AM 28.4 °F 23.3 °F 26.6 °F 93% 30.36 in 10.0 mi NW 4.6 mph - N/A   Clear
3:55 AM 28.4 °F 23.3 °F 26.6 °F 93% 30.36 in 10.0 mi NW 4.6 mph - N/A   Clear
4:15 AM 26.6 °F 22.6 °F 24.8 °F 93% 30.37 in 10.0 mi NW 3.5 mph - N/A   Clear
4:35 AM 28.4 °F 21.2 °F 24.8 °F 86% 30.37 in 10.0 mi NW 6.9 mph - N/A   Clear
4:55 AM 28.4 °F 22.2 °F 24.8 °F 86% 30.37 in 10.0 mi NW 5.8 mph - N/A   Clear
5:15 AM 28.4 °F 22.2 °F 24.8 °F 86% 30.37 in 10.0 mi WNW 5.8 mph - N/A   Clear
5:35 AM 26.6 °F 22.6 °F 23.0 °F 86% 30.38 in 10.0 mi WNW 3.5 mph - N/A   Clear
5:55 AM 28.4 °F 21.2 °F 23.0 °F 80% 30.38 in 10.0 mi WNW 6.9 mph - N/A   Clear
6:15 AM 28.4 °F 21.2 °F 23.0 °F 80% 30.39 in 10.0 mi NW 6.9 mph - N/A   Clear
6:35 AM 26.6 °F 18.2 °F 23.0 °F 86% 30.39 in 10.0 mi NW 8.1 mph - N/A   Clear
6:55 AM 26.6 °F 18.2 °F 23.0 °F 86% 30.40 in 10.0 mi NW 8.1 mph - N/A   Clear
7:15 AM 24.8 °F 16.9 °F 21.2 °F 86% 30.40 in 10.0 mi NW 6.9 mph - N/A   Clear
7:35 AM 24.8 °F 16.1 °F 21.2 °F 86% 30.40 in 10.0 mi NNW 8.1 mph - N/A   Clear
8:15 AM 24.8 °F 19.1 °F 21.2 °F 86% 30.42 in 10.0 mi NNW 4.6 mph - N/A   Clear
8:35 AM 24.8 °F 19.1 °F 21.2 °F 86% 30.43 in 10.0 mi NNW 4.6 mph - N/A   Clear
8:55 AM 26.6 °F 21.2 °F 21.2 °F 80% 30.43 in 10.0 mi NNW 4.6 mph - N/A   Clear
9:15 AM 26.6 °F 20.0 °F 21.2 °F 80% 30.43 in 10.0 mi NNW 5.8 mph - N/A   Clear
9:35 AM 28.4 °F 19.7 °F 23.0 °F 80% 30.44 in 10.0 mi NNW 9.2 mph - N/A   Clear
10:15 AM 30.2 °F 22.6 °F 24.8 °F 80% 30.45 in 10.0 mi NNW 8.1 mph - N/A   Clear
10:35 AM 32.0 °F 24.8 °F 26.6 °F 80% 30.46 in 10.0 mi NNW 8.1 mph - N/A   Clear
10:55 AM 32.0 °F 23.6 °F 24.8 °F 75% 30.47 in 10.0 mi NNW 10.4 mph - N/A   Clear
11:15 AM 32.0 °F 24.8 °F 26.6 °F 80% 30.48 in 10.0 mi NNW 8.1 mph - N/A   Clear
11:35 AM 32.0 °F 24.2 °F 26.6 °F 80% 30.48 in 10.0 mi North 9.2 mph - N/A   Clear
11:55 AM 33.8 °F 27.7 °F 26.6 °F 75% 30.47 in 10.0 mi NNW 6.9 mph - N/A   Clear
12:15 PM 35.6 °F 29.9 °F 26.6 °F 70% 30.46 in 10.0 mi NW 6.9 mph - N/A   Clear
12:35 PM 35.6 °F 30.7 °F 26.6 °F 70% 30.45 in 10.0 mi NW 5.8 mph - N/A   Clear
12:55 PM 37.4 °F 31.4 °F 26.6 °F 65% 30.44 in 10.0 mi NW 8.1 mph - N/A   Clear
1:15 PM 37.4 °F 31.4 °F 26.6 °F 65% 30.43 in 10.0 mi NNW 8.1 mph - N/A   Clear
1:35 PM 37.4 °F 30.8 °F 26.6 °F 65% 30.42 in 10.0 mi NW 9.2 mph - N/A   Clear
1:55 PM 39.2 °F 33.0 °F 26.6 °F 61% 30.41 in 10.0 mi NNW 9.2 mph - N/A   Clear
2:15 PM 39.2 °F 33.0 °F 26.6 °F 61% 30.41 in 10.0 mi NNW 9.2 mph - N/A   Clear
2:35 PM 39.2 °F 33.6 °F 26.6 °F 61% 30.41 in 10.0 mi NNW 8.1 mph - N/A   Clear
2:55 PM 39.2 °F 32.5 °F 26.6 °F 61% 30.40 in 10.0 mi North 10.4 mph - N/A   Clear
3:15 PM 41.0 °F 34.3 °F 24.8 °F 53% 30.40 in 10.0 mi NNW 11.5 mph - N/A   Clear
3:35 PM 39.2 °F 32.0 °F 24.8 °F 56% 30.41 in 10.0 mi NNW 11.5 mph - N/A   Clear
3:55 PM 39.2 °F 34.2 °F 24.8 °F 56% 30.41 in 10.0 mi North 6.9 mph - N/A   Clear
4:15 PM 39.2 °F 33.6 °F 24.8 °F 56% 30.41 in 10.0 mi NNW 8.1 mph - N/A   Clear
4:35 PM 39.2 °F 34.2 °F 24.8 °F 56% 30.41 in 10.0 mi NW 6.9 mph - N/A   Clear
4:55 PM 37.4 °F 32.8 °F 23.0 °F 56% 30.41 in 10.0 mi NW 5.8 mph - N/A   Clear
5:35 PM 35.6 °F 32.8 °F 24.8 °F 65% 30.41 in 10.0 mi NNW 3.5 mph - N/A   Clear
5:55 PM 35.6 °F - 23.0 °F 60% 30.41 in 10.0 mi Calm Calm - N/A   Clear
6:35 PM 35.6 °F - 23.0 °F 60% 30.42 in 10.0 mi Calm Calm - N/A   Clear
6:55 PM 32.0 °F - 23.0 °F 69% 30.42 in 10.0 mi Calm Calm - N/A   Clear
7:15 PM 32.0 °F - 24.8 °F 75% 30.43 in 10.0 mi Calm Calm - N/A   Clear
7:35 PM 32.0 °F - 23.0 °F 69% 30.42 in 10.0 mi Calm Calm - N/A   Clear
7:55 PM 32.0 °F - 24.8 °F 75% 30.42 in 10.0 mi Calm Calm - N/A   Clear
8:15 PM 30.2 °F - 24.8 °F 80% 30.42 in 10.0 mi Calm Calm - N/A   Clear
8:35 PM 30.2 °F - 24.8 °F 80% 30.41 in 10.0 mi Calm Calm - N/A   Clear
8:55 PM 28.4 °F - 24.8 °F 86% 30.41 in 10.0 mi Calm Calm - N/A   Clear
9:15 PM 28.4 °F - 23.0 °F 80% 30.42 in 10.0 mi Calm Calm - N/A   Clear
9:35 PM 30.2 °F 26.7 °F 23.0 °F 75% 30.43 in 10.0 mi SW 3.5 mph - N/A   Clear
9:55 PM 26.6 °F 22.6 °F 23.0 °F 86% 30.43 in 10.0 mi SSW 3.5 mph - N/A   Clear
10:15 PM 26.6 °F - 21.2 °F 80% 30.43 in 10.0 mi Calm Calm - N/A   Clear
10:35 PM 26.6 °F - 21.2 °F 80% 30.43 in 10.0 mi Calm Calm - N/A   Clear
10:55 PM 26.6 °F - 23.0 °F 86% 30.43 in 10.0 mi Calm Calm - N/A   Clear
11:15 PM 26.6 °F - 23.0 °F 86% 30.43 in 10.0 mi Calm Calm - N/A   Clear
11:35 PM 26.6 °F - 21.2 °F 80% 30.44 in 10.0 mi Calm Calm - N/A   Clear
11:55 PM 26.6 °F 22.6 °F 23.0 °F 86% 30.43 in 10.0 mi SSW 3.5 mph - N/A   Clear